Location: Caixon
(43.4106°N, 0.0273°E)
Time: 22:40:30
(UTC+00:00)

Meteor 1-21 - Pass Details

Date: 16 October 2021
Orbit: 844 x 887 km, 81.2° (Epoch: 07 December)

Event Time Altitude Azimuth Distance (km) Brightness Sun altitude
Rises 04:59:37 0° 193° (SSW) 3,447 7.2 -14.5°
Reaches altitude 10° 05:02:03 10° 195° (SSW) 2,507 6.5 -14.0°
Maximum altitude 05:07:45 76° 281° (W) 891 4.2 -13.0°
Drops below altitude 10° 05:13:25 10° 7° (N) 2,496 6.7 -12.0°
Sets 05:15:51 0° 9° (N) 3,431 7.5 -11.5°
